Location: Borz?cin
(51.1714°N, 19.6030°E)
Time: 22:40:31
(UTC+00:00)

Cosmos 1371 Rocket - Pass Details

Date: 19 May 2025
Orbit: 750 x 786 km, 74.0° (Epoch: 16 June)

Event Time Altitude Azimuth Distance (km) Brightness Sun altitude
Rises 22:34:53 0° 335° (NNW) 3,290 8.5 -18.8°
Reaches altitude 10° 22:37:18 10° 337° (NNW) 2,358 7.5 -18.8°
Maximum altitude 22:42:40 77° 64° (ENE) 812 4.1 -18.8°
Enters shadow 22:45:29 29° 146° (SSE) 1,415 4.9 -18.8°
